Weather in Lavrovo

Russia / Kostroma Oblast     57°28′35″N   40°31′59″E
temp.,
°C
wind,
m/s
gust,
m/s
humid.,
%
clouds,
%
prec.,
mm/h
press.,
hPa
HPBL,
m
16 june, wed
wed1600:00+16wnw118622 0.8 100911
03:00+15nw228793 0.8 100920
06:00+17nw258984 0.0 1009177
09:00+18nnw587972 0.0 1011572
12:00+20nnw67617 0.0 10111259
15:00+20nw79560 0.0 10131082
18:00+19nw510650 0.0 1013465
21:00+13nw46700 0.0 101580
17 june, thu
thu1700:00+12nw366574 0.0 101781
03:00+10nw35635 0.0 101980
06:00+12nw410732 0.0 1021320
09:00+16nw610560 0.0 1022805
12:00+19nw58500 0.0 10231725
15:00+20nw59535 0.0 10231934
18:00+20nw366645 0.0 1023491
21:00+15wsw22794 0.0 102416
18 june, fri
fri1800:00+13wnw11850 0.0 102510
03:00+12w018612 0.0 102610
06:00+15ssw00805 0.0 102762
09:00+20wsw2267100 0.0 1027441
12:00+23wsw335626 0.0 10261123
15:00+24wsw45555 0.0 10251469
18:00+23sw376978 0.0 1024348
21:00+19sw3481100 0.0 102445
19 june, sat
sat1900:00+17wsw49845 0.0 1025127
03:00+15wsw410875 0.0 1025170
06:00+18wsw410863 0.0 1025283
09:00+22wsw56725 0.0 1025496
12:00+25wsw56613 0.0 10241170
15:00+27wsw47590 0.0 10231814
18:00+26wsw36701 0.0 1023314
21:00+21wsw33820 0.0 102333
20 june, sun
sun2000:00+18wsw47860 0.0 102398
03:00+17wsw37895 0.0 1024106
06:00+19wsw378523 0.0 1024201
09:00+23wsw45696 0.0 1024477
12:00+26wsw566092 0.0 10231093
15:00+26wsw56575 0.0 10221389
18:00+25sw46690 0.0 1021322
21:00+20sw47802 0.0 1021108